EW0401 Weather Reports


time (UTC)temp
C
wind
direction
speed
KPH
gust
KPH
rain 1hr
cm
rain 24hr
cm
rain mn
cm
humidity
%
barometer
mb
20260904091557 27 0 0.0 0.0 0.00 1.78 0.00 88 1013.4
20260904090107 27 0 0.0 0.0 0.00 1.78 0.00 87 1013.3
20260904084600 27 0 0.0 0.0 0.00 1.78 0.00 87 1013.3
20260904083148 27 0 0.0 0.0 0.00 1.78 0.00 87 1013.2
20260904081609 27 0 0.0 0.0 0.00 1.78 0.00 87 1013.2
20260904080104 28 0 0.0 0.0 0.00 1.78 0.00 86 1013.3
20260904074559 28 0 0.0 3.2 0.00 1.78 0.00 86 1013.4
20260904073101 28 0 0.0 0.0 0.00 1.78 0.00 86 1013.4
20260904071623 28 0 0.0 1.6 0.00 1.78 0.00 86 1013.4
20260904070118 28 0 0.0 6.4 0.00 1.78 0.00 86 1013.5
20260904064604 28 0 0.0 3.2 0.00 1.78 0.00 86 1013.5
20260904063112 28 0 0.0 1.6 0.00 1.78 0.00 86 1013.5
20260904061616 28 0 0.0 4.8 0.00 1.78 0.00 86 1013.5
20260904060107 27 0 0.0 0.0 0.00 1.78 0.00 87 1013.6
20260904054605 27 0 0.0 3.2 0.00 1.78 0.00 87 1013.6
20260904053107 27 0 0.0 3.2 0.00 1.78 0.00 87 1013.3
20260904051600 27 0 0.0 0.0 0.00 1.78 0.00 88 1013.5
20260904050105 27 0 0.0 1.6 0.00 1.78 0.00 88 1013.5
20260904044559 27 0 0.0 3.2 0.00 1.78 1.78 88 1013.6
20260904043104 27 0 0.0 0.0 0.00 1.78 1.78 88 1013.7
20260904041601 27 0 0.0 0.0 0.00 1.78 1.78 88 1013.8
20260904040110 27 0 0.0 0.0 0.00 1.78 1.78 88 1013.9
20260904034600 27 0 0.0 0.0 0.00 1.78 1.78 87 1013.8
20260904033100 27 0 0.0 0.0 0.00 1.78 1.78 87 1013.8
20260904031610 27 0 0.0 0.0 0.00 1.78 1.78 87 1013.8
20260904030107 27 0 0.0 1.6 0.00 1.78 1.78 87 1013.8
20260904024604 27 0 0.0 3.2 0.00 1.78 1.78 87 1013.8
20260904023059 28 0 0.0 0.0 0.00 1.78 1.78 87 1013.7
20260904021557 28 0 0.0 0.0 0.00 1.78 1.78 87 1013.6
20260904020104 28 0 0.0 0.0 0.00 1.78 1.78 86 1013.6
20260904014608 28 0 0.0 1.6 0.00 1.78 1.78 86 1013.4
20260904013103 28 0 0.0 0.0 0.00 1.78 1.78 86 1013.2
20260904011605 28 0 0.0 0.0 0.00 1.78 1.78 85 1013.1
20260904010106 28 0 0.0 3.2 0.00 1.78 1.78 85 1012.9
20260904004607 29 0 0.0 3.2 0.00 1.78 1.78 84 1013.0
20260904003059 29 0 0.0 3.2 0.00 1.78 1.78 83 1013.0
20260904001608 30 0 0.0 3.2 0.00 1.78 1.78 83 1012.9
20260904000110 30 0 0.0 4.8 0.00 1.78 1.78 80 1012.9
20260903234605 30 0 0.0 3.2 0.00 1.78 1.78 79 1012.9
20260903233103 30 279 0.0 3.2 0.00 1.78 1.78 77 1012.8
20260903231559 30 0 0.0 6.4 0.00 1.78 1.78 76 1012.7
20260903230105 31 0 0.0 11.3 0.00 1.78 1.78 77 1012.7
20260903224558 31 206 0.0 6.4 0.03 1.78 1.78 76 1012.9
20260903223100 31 0 0.0 4.8 0.03 1.78 1.78 75 1013.0
20260903221602 31 0 0.0 9.7 0.03 1.78 1.78 75 1013.1
20260903220107 32 180 0.0 4.8 0.03 1.78 1.78 75 1013.5
20260903214614 31 0 0.0 4.8 0.00 1.75 1.75 74 1013.6
20260903213100 31 0 0.0 4.8 0.00 1.75 1.75 74 1013.7
20260903211611 31 0 0.0 0.0 0.00 1.75 1.75 73 1013.9
20260903210104 31 0 0.0 4.8 0.00 1.75 1.75 75 1013.7
20260903204603 31 0 0.0 6.4 0.00 1.75 1.75 75 1013.9
20260903203102 31 80 1.6 6.4 0.00 1.75 1.75 77 1014.1
20260903201609 31 0 0.0 6.4 0.00 1.75 1.75 78 1014.4
20260903194603 30 0 1.6 9.7 0.00 1.75 1.75 79 1014.3
20260903193103 31 0 1.6 9.7 0.00 1.75 1.75 79 1014.4
20260903191601 31 0 1.6 8.0 0.00 1.75 1.75 76 1014.4
20260903190111 32 53 0.0 4.8 0.00 1.75 1.75 74 1014.5
20260903184606 32 0 0.0 9.7 0.00 1.75 1.75 76 1014.6
20260903183103 31 0 0.0 4.8 0.00 1.75 1.75 79 1014.4
20260903181604 31 0 0.0 3.2 0.00 1.75 1.75 78 1014.6
20260903180109 31 0 0.0 3.2 0.00 1.75 1.75 78 1015.1
20260903174602 31 0 0.0 6.4 0.00 1.75 1.75 78 1015.3
20260903173102 31 0 0.0 4.8 0.00 1.75 1.75 78 1015.3
20260903171607 31 0 0.0 3.2 0.00 1.75 1.75 77 1015.4
20260903170107 31 0 0.0 0.0 0.00 1.75 1.75 80 1015.5
20260903164609 30 0 0.0 3.2 0.00 1.75 1.75 87 1015.7
20260903163101 28 0 0.0 4.8 0.00 1.75 1.75 88 1015.6
20260903161605 27 0 0.0 3.2 0.00 1.75 1.75 91 1015.5
20260903160109 27 207 0.0 0.0 0.03 1.75 1.75 93 1015.2
20260903154608 27 0 0.0 1.6 0.03 1.75 1.75 93 1015.1
20260903153130 26 0 0.0 0.0 0.08 1.75 1.75 93 1015.2
20260903151616 25 0 0.0 0.0 0.13 1.75 1.75 92 1015.2
20260903150121 24 0 0.0 0.0 0.13 1.73 1.73 92 1015.3
20260903144606 24 0 0.0 0.0 0.13 1.73 1.73 91 1015.4
20260903143108 23 0 0.0 1.6 0.23 1.68 1.68 91 1015.4
20260903141606 23 0 0.0 0.0 0.74 1.63 1.63 91 1015.7
20260903140104 23 0 0.0 0.0 1.37 1.60 1.60 90 1015.6
20260903134605 23 0 0.0 3.2 1.60 1.60 1.60 90 1016.0
20260903133104 24 0 0.0 8.0 1.45 1.45 1.45 89 1015.9
20260903131601 25 0 3.2 12.9 0.86 0.86 0.86 87 1016.0
20260903130058 28 0 4.8 12.9 0.23 0.23 0.23 85 1015.6
20260903124604 28 0 0.0 0.0 0.00 0.00 0.00 87 1014.9
20260903123104 28 0 0.0 0.0 0.00 0.00 0.00 87 1015.1
20260903121601 28 0 0.0 0.0 0.00 0.00 0.00 87 1014.6
20260903120058 28 0 0.0 3.2 0.00 0.00 0.00 87 1014.4
20260903114602 28 0 0.0 0.0 0.00 0.00 0.00 87 1014.4
20260903113100 28 0 0.0 0.0 0.00 0.00 0.00 87 1014.5
20260903111608 28 0 0.0 0.0 0.00 0.00 0.00 86 1014.5
20260903104621 28 0 0.0 4.8 0.00 0.00 0.00 86 1014.2
20260903103106 28 0 0.0 0.0 0.00 0.00 0.00 86 1014.1
20260903101601 28 0 0.0 1.6 0.00 0.00 0.00 86 1014.0
20260903094611 28 0 0.0 6.4 0.00 0.00 0.00 86 1014.0
20260903093106 28 0 0.0 4.8 0.00 0.00 0.00 86 1014.1